sat.trackr.live / text

‹ back to catalog

STARLINK-36159

NORAD 67079 · 2025-298E

PAYLOAD ACTIVE UNKNOWN

§ Identity

Operator
Country
US
Launch date
2025-12-14
Launch site
AFWTR
Launch vehicle
Mass (kg)
RCS (m²)

Purposes: comms

External: N2YO · Heavens-Above · Gunter

§ Orbital elements

Epoch: 2026-05-25T03:31:28.684128Z

Period
96.11 min
Inclination
70.0015°
Eccentricity
0.0003730
Mean motion
14.98336099 rev/d
Perigee alt
569.4 km
Apogee alt
574.6 km
Semi-major
6,950.2 km
B*
2.1667e-4
RAAN
181.5401°
Arg perigee
268.1774°
Mean anomaly
91.8958°
Rev number
2,467

§ Raw data

STARLINK-361591 67079U 25298E   26145.14685977  .00002494  00000+0  21667-3 0  99932 67079  70.0015 181.5401 0003730 268.1774  91.8958 14.98336099 24673

JSON: /api/v1/satellites/67079 · /tle

For live sub-satellite position, see the globe view (requires WebGL).

§ Visibility from observer

Set your observer location to see the next 7 days of passes ≥ 10°. The values pass through the URL so the page stays shareable.

No JS? Fill the form by hand. The geolocation button needs JavaScript.